STARLINK-2286

Last updated on Sat Apr 24 2021 00:02:02 GMT+0000 (Coordinated Universal Time)

1 48033U 21024BJ 21113.25001157 .00039722 00000-0 28595-3 0 9991 2 48033 53.0485 55.6439 0001210 82.7533 96.7654 15.73208173 1824

Satellite not in orbit